Pagina principale
METAR-TAF:

METAR-TAF

Aeroporti :

Aeroporto d'Engadina

Sankt Moritz, Svizzera

latitudine: 46-32-03N, longitudine: 9-53-03E, altezza: 1707 m

Osservazione

Il bollettino è stato emesso 21 minuti fa, alle 14:50 UTC
Vento 16 kt da sud/sud-ovest
Temperature 13°C
Umidità 58%
Pressione 1012 hPa
Visibilità 10 km o più
Nubi sparse ad un'altezza di 8000 ft

METAR: LSZS 151450Z 21016KT 9999 SCT080 13/05 Q1012 RMK T TL170

Ora: 17:11 (15:11 UTC)

Previsione

Il bollettino è stato emesso 46 minuti fa, alle 14:25 UTC
Previsione valida dal 15 alle 15 UTC al 15 alle 24 UTC
Vento 15 kt da sud-ovest
Visibilità 10 km o più
Nubi sparse ad un'altezza di 8000 ft
Evoluzione graduale
dal 15 alle 17 UTC al 15 alle 19 UTC
Vento 5 kt da sud-ovest

TAF: LSZS 151425Z 1515/1524 22015KT 9999 SCT080 TX13/1515Z BECMG 1517/1519 22005KT

Osservazioni e previsioni meteorologiche di più di 4000 aeroporti (messaggi METAR e TAF).

Le stazioni disponibili sono rappresentate dai dischi gialli e rossi sulla carta.

Puntare il mouse per vedere il nome della stazione.

Clicca sopra per visualizzare le osservazioni e previsioni meteorologiche.

Per cambiare la mappa : fare clic sui pulsanti verdi con una croce nera per ingrandire, il pulsante verde con un trattino per diminuire, o sulla freccia verde per le mappe adiacenti.


METAR-TAF: